Location: Canyon City
(32.5951°N, 116.5278°W)
Time: 02:06:35
(UTC+00:00)

Cosmos 1825 Rocket - Pass Details

Date: 08 September 2024
Orbit: 600 x 626 km, 82.5° (Epoch: 03 October)

Event Time Altitude Azimuth Distance (km) Brightness Sun altitude
Rises 12:29:12 0° 355° (N) 2,910 7.1 -12.5°
Reaches altitude 10° 12:31:27 10° 357° (N) 1,996 6.3 -12.1°
Maximum altitude 12:35:53 78° 84° (E) 636 3.7 -11.2°
Drops below altitude 10° 12:40:14 10° 171° (S) 1,969 6.1 -10.3°
Sets 12:42:27 0° 172° (S) 2,865 6.9 -9.8°
